This is the latest recevied weather packets stored in our database for station/object K6GMW. If no packets are shown the sender has not sent any weather packets the latest 10 day(s).
| Time | Temp. | Humidity | Pressure | Rain* | Wind** | Luminosity | Snow |
|---|---|---|---|---|---|---|---|
| 1788055563 | 28.89° C | 51% | 1016.1 hPa | 0 mm | - | 0 W/m² | - |
| 1788055259 | 29.44° C | 51% | 1016.2 hPa | 0 mm | - | 0 W/m² | - |
| 1788054958 | 29.44° C | 50% | 1016.3 hPa | 0 mm | - | 0 W/m² | - |
| 1788054654 | 30° C | 48% | 1016.2 hPa | 0 mm | - | 0 W/m² | - |
| 1788054349 | 30° C | 47% | 1016.2 hPa | 0 mm | - | 0 W/m² | - |
| 1788054045 | 30.56° C | 46% | 1016 hPa | 0 mm | - | 0 W/m² | - |
| 1788053741 | 30.56° C | 46% | 1016 hPa | 0 mm | - | 0 W/m² | - |
| 1788053436 | 31.11° C | 45% | 1015.9 hPa | 0 mm | - | 0 W/m² | - |
| 1788053136 | 31.67° C | 44% | 1015.8 hPa | 0 mm | - | 0 W/m² | - |
| 1788052832 | 31.67° C | 43% | 1015.7 hPa | 0 mm | - | 0 W/m² | - |
| 1788052532 | 31.67° C | 43% | 1015.7 hPa | 0 mm | - | 0 W/m² | - |
| 1788052228 | 32.22° C | 42% | 1015.9 hPa | 0 mm | - | 0 W/m² | - |
| 1788051928 | 32.22° C | 41% | 1015.9 hPa | 0 mm | - | 0 W/m² | - |
| 1788051623 | 32.78° C | 40% | 1015.6 hPa | 0 mm | - | 1 W/m² | - |
| 1788051321 | 32.78° C | 39% | 1016 hPa | 0 mm | - | 2 W/m² | - |
| 1788051021 | 33.33° C | 39% | 1015.7 hPa | 0 mm | - | 3 W/m² | - |
| 1788050721 | 33.33° C | 38% | 1015.6 hPa | 0 mm | - | 6 W/m² | - |
| 1788050421 | 33.89° C | 38% | 1015.8 hPa | 0 mm | - | 9 W/m² | - |
| 1788050121 | 33.89° C | 37% | 1015.6 hPa | 0 mm | - | 13 W/m² | - |
| 1788049816 | 34.44° C | 36% | 1015.6 hPa | 0 mm | - | 17 W/m² | - |
| 1788049509 | 35° C | 35% | 1015.5 hPa | 0 mm | - | 22 W/m² | - |
| 1788049205 | 35.56° C | 35% | 1015.6 hPa | 0 mm | - | 28 W/m² | - |
| 1788048899 | 35.56° C | 34% | 1015.7 hPa | 0 mm | - | 34 W/m² | - |
| 1788048595 | 36.11° C | 34% | 1015.4 hPa | 0 mm | - | 41 W/m² | - |
| 1788048292 | 36.67° C | 34% | 1015.5 hPa | 0 mm | - | 47 W/m² | - |
* Rain latest hour (hover to see other rain measurements)
** Current wind speed in m/s (hover to see current wind gust speed)